Hourly Data Report for April 03, 2021

KUGAARUK CLIMATE
NUNAVUT
Current Station Operator: ECCC - MSC

68°32'15.060" N
89°47'47.020" W
15.80 m
2303094
71407
NBB

Download Data

Hourly Data (April 2021)
Hourly Data Report for April 3, 2021
TIME
LST
Temp Definition
°C
Dew Point Definition
°C
Rel Hum Definition
%
Precip. Amount Definition
mm

Wind Dir Definition
10's deg

Wind Spd Definition
km/h
Visibility Definition
km
Stn Press Definition
kPa
Hmdx Definition


Wind Chill Definition


Weather Definition


00:00 -33.4 -36.9 71 0.0 8 12   103.22   -44 LegendNANA
01:00 -32.3 -35.7 72 0.0 6 27   103.11   -48 LegendNANA
02:00 -30.1 -33.3 73 0.0 8 33   103.03   -46 LegendNANA
03:00 -28.9 -32.1 74 0.0 8 23   103.00   -43 LegendNANA
04:00 -27.0 -30.1 75 0.0 7 32   102.89   -42 LegendNANA
05:00 -25.2 -28.2 77 0.2 7 31   102.81   -40 LegendNANA
06:00 -23.8 -26.7 77 0.0 7 52   102.58   -41 LegendNANA
07:00 -22.7 -25.7 77 0.0 7 42   102.60   -38 LegendNANA
08:00 -22.0 -25.0 77 0.0 7 44   102.51   -37 LegendNANA
09:00 -21.4 -24.3 77 0.2 7 42   102.39   -36 LegendNANA
10:00 -20.6 -23.5 77 0.0 7 47   102.24   -36 LegendNANA
11:00 -19.5 -22.3 78 0.0 7 48   102.08   -34 LegendNANA
12:00 -18.2 -21.0 79 0.0 7 44   102.03   -32 LegendNANA
13:00 -17.0 -19.5 81 0.0 7 39   101.93   -30 LegendNANA
14:00 -15.7 -18.0 82 0.0 6 32   101.89   -27 LegendNANA
15:00 -10.9 -12.7 87 0.2 9 29   101.83   -21 LegendNANA
16:00 -10.1 -11.9 87 0.0 11 38   101.81   -21 LegendNANA
17:00 -10.1 -11.7 89 0.0 11 42   101.82   -21 LegendNANA
18:00 -10.3 -11.8 89 0.2 11 51   101.83   -22 LegendNANA
19:00 -10.8 -12.4 88 0.0 10 33   101.90   -21 LegendNANA
20:00 -11.0 -12.6 88 0.0 10 33   101.91   -21 LegendNANA
21:00 -11.0 -12.6 88 0.0 10 31   101.93   -21 LegendNANA
22:00 -11.5 -13.0 88 0.0 10 34   101.90   -22 LegendNANA
23:00 -12.0 -13.7 87 0.0 10 29   101.91   -22 LegendNANA

Notes on Data Quality.

Legend

  • E = Estimated
  • M = Missing
  • NA = Not Available*
  • [empty] = Indicates an unobserved value
Date modified: